Location: Unspecified
(0.0000°N, 0.0000°E)
Time: 12:35:28
(UTC+00:00)

deb OV3-4 - Pass Details

Date: 19 June 2025
Orbit: 581 x 4212 km, 40.6° (Epoch: 19 July)

Event Time Altitude Azimuth Distance (km) Brightness Sun altitude
Rises 18:16:29 0° 328° (NNW) 7,533 ? -3.4°
Reaches altitude 10° 18:22:17 10° 337° (NNW) 6,893 ? -4.8°
Maximum altitude 18:44:03 35° 37° (NE) 5,499 ? -9.7°
Enters shadow 19:03:00 12° 94° (E) 6,387 ? -14.1°
